EHI
0 0 0 0 0 0 0 0 0 0 0 0 0 0 0 0 0 0 0 0 0 0 0 0 0 0 0 0 0 0 0 0 0 0 0 0 0 0 0 0 0 0 0
0 0 0 0 0 0 0 0 0 0 0 0 0 0 0 0 0 0 0 0 0 0 0 0 0 0 0 0 0 0 0 0 0 0 0 0 0 0 0 0 0 0 0
0 0 0 0 0 0 0 0 0 0 0 0 0 0 0 0 0 0 0 0 0 0 0 0 0 0 0 0 0 0 0 0 0 0 0 0 0 0 0 0 0 0 0
0 0 0 0 0 0 0 0 0 0 0 0 0 0 0 0 0 0 0 0 0 0 0 0 0 0 0 0 0 0 0 0 0 0 0 0 0 0 0 0 0 0 0
0 0 0 0 0 0 0 0 0 0 0 0 0 0 0 0 0 0 0 0 0 0 0 0 0 0 0 0 0 0 0 0 0 0 0 0 0 0 0 0 0 0 0
0 0 0 0 0 0 0 0 0 0 0 0 0 0 0 0 0 0 0 0 0 0 0 0 0 0 0 0 0 0 0 0 0 0 0 0 0 0 0 0 0 0 0
0 0 0 0 0 0 0 0 0 0 0 0 0 0 0 0 0 0 0 0 0 0 0 0 0 0 0 0 0 0 0 0 0 0 0 0 0 0 0 0 0 0 0
0 0 0 0 0 0 0 0 0 0 0 0 0 0 0 0 0 0 0 0 0 0 0 0 0 0 0 0 0 0 0 0 0 0 0 0 0 0 0 0 0 0 0
0 0 0 0 0 0 0 0 0 0 0 0 0 0 0 0 0 0 0 0 0 0 0 0 0 0 0 0 0 0 0 0 0 0 0 0 0 0 0 0 0 0 0
0 0 0 0 0 0 0 0 0 0 0 0 0 0 0 0 0 0 0 0 0 0 0 0 0 0 0 0 0 0 0 0 0 0 0 0 0 0 0 0 0 0 0
0 0 0 0 0 0 0 0 0 0 0 0 0 0 0 0 0 0 0 0 0 0 0 0 0 0 0 0 0 0 0 0 0 0 0 0 0 0 0 0 0 0 0
0 0 0 0 0 0 0 0 0 0 0 0 0 0 0 0 0 0 0 0 0 0 0 0 0 0 0 0 0 0 0 0 0 0 0 0 0 0 0 0 0 0 0
0 0 0 0 0 0 0 0 0 0 0 0 0 0 0 0 0 0 0 0 0 0 0 0 0 0 0 0 0 0 0 0 0 0 0 0 0 0 0 0 0 0 0
0 0 0 0 0 0 0 0 0 0 0 0 0 0 0 0 0 0 0 0 0 0 0 0 0 0 0 0 0 0 0 0 0 0 0 0 0 0 0 0 0 0 0
0 0 0 0 0 0 0 0 0 0 0 0 0 0 0 0 0 0 0 0 0 0 0 0 0 0 0 0 0 0 0 0 0 0 0 0 0 0 0 0 0 0 0
0 0 0 0 0 0 0 0 0 0 0 0 0 0 0 0 0 0 0 0 0 0 0 0 0 0 0 0 0 0 0 0 0 0 0 0 0 0 0 0 0 0 0
0 0 0 0 0 0 0 0 0 0 0 0 0 0 0 0 0 0 0 0 0 0 0 0 0 0 0 0 0 0 0 0 0 0 0 0 0 0 0 0 0 0 0
0 0 0 0 0 0 0 0 0 0 0 0 0 0 0 0 0 0 0 0 0 0 0 0 0 0 0 0 0 0 0 0 0 0 0 0 0 0 0 0 0 0 0
0 0 0 0 0 0 0 0 0 0 0 0 0 0 0 0 0 0 0 0 0 0 0 0 0 0 0 0 0 0 0 0 0 0 0 0 0 0 0 0 0 0 0
0 0 0 0 0 0 0 0 0 0 0 0 0 0 0 0 0 0 0 0 0 0 0 0 0 0 0 0 0 0 0 0 0 0 0 0 0 0 0 0 0 0 0
0 0 0 0 0 0 0 0 0 0 0 0 0 0 0 0 0 0 0 0 0 0 0 0 0 0 0 0 0 0 0 0 0 0 0 0 0 0 0 0 0 0 0
0 0 0 0 0 0 0 0 0 0 0 0 0 0 0 0 0 0 0 0 0 0 0 0 0 0 0 0 0 0 0 0 0 0 0 0 0 0 0 0 0 0 0
0 0 0 0 0 0 0 0 0 0 0 0 0 0 0 0 0 0 0 0 0 0 0 0 0 0 0 0 0 0 0 0 0 0 0 0 0 0 0 0 0 0 0
0 0 0 0 0 0 0 0 0 0 0 0 0 0 0 0 0 0 0 0 0 0 0 0 0 0 0 0 0 0 0 0 0 0 0 0 0 0 0 0 0 0 0
0 0 0 0 0 0 0 0 0 0 0 0 0 0 0 0 0 0 0 0 0 0 0 0 0 0 0 0 0 0 0 0 0 0 0 0 0 0 0 0 0 0 0
0 0 0 0 0 0 0 0 0 0 0 0 0 0 0 0 0 0 0 0 0 0 0 0 0 0 0 0 0 0 0 0 0 0 0 0 0 0 0 0 0 0 0
Wind_Speed
6 8 7 8 8 8 8 8 8 7 5 3 2 3 3 2 3 4 5 6 6 6 4 4 3 3 3 4 4 3 3 4 2 3 7 7 7 6 7 6 7 10 11
7 8 9 7 6 7 7 8 9 9 7 4 3 2 2 1 2 4 6 6 5 3 2 4 4 4 4 5 5 4 3 3 2 2 6 7 10 6 5 6 7 8 9
8 7 6 3 2 5 6 3 2 2 3 4 2 3 4 5 5 6 6 6 6 5 2 1 3 5 5 6 7 6 6 7 4 4 4 6 11 12 9 7 6 6 5
8 10 10 9 5 2 7 9 9 9 8 8 9 9 6 4 3 2 4 6 7 7 7 5 3 2 3 6 6 6 5 5 5 2 4 7 8 8 15 12 7 5 4
11 13 14 15 14 12 11 11 12 11 9 9 8 7 6 3 2 2 4 4 5 8 8 7 7 5 5 7 5 6 5 4 5 4 4 4 4 5 7 11 11 8 6
13 13 13 14 13 12 11 10 11 9 8 8 6 5 3 1 1 1 2 3 4 5 5 6 7 7 6 6 6 6 5 4 4 4 4 4 4 3 4 8 12 11 8
13 13 12 13 13 12 10 9 9 7 5 4 3 3 2 2 2 2 3 3 4 4 7 7 6 6 6 6 6 5 5 5 4 5 5 6 8 5 5 9 11 9 4
12 12 10 11 10 9 7 7 7 5 3 2 2 2 2 2 2 3 4 5 5 5 6 7 6 6 7 8 8 7 6 6 6 8 8 9 9 6 6 8 8 10 6
8 8 7 8 7 6 5 5 5 5 3 1 0 2 1 1 2 3 3 5 5 5 6 6 7 7 8 9 8 7 7 7 7 7 8 7 6 5 6 7 7 8 7
6 5 4 4 4 3 4 4 1 1 3 5 6 4 5 5 5 5 5 5 5 4 7 10 10 10 9 8 7 8 10 11 9 7 9 9 8 8 8 8 7 7 7
5 5 4 3 6 5 4 3 4 7 7 7 6 6 6 7 7 7 7 6 5 5 9 10 10 9 9 10 9 10 10 11 10 11 11 13 12 9 9 9 8 8 8
6 6 6 5 4 3 3 4 5 5 4 4 5 6 6 7 8 7 7 6 7 7 8 9 9 11 12 12 11 12 11 11 12 13 13 13 11 12 11 10 10 10 9
10 9 9 8 6 6 6 5 5 5 5 6 6 7 8 8 8 7 7 7 9 9 10 9 10 12 12 12 11 11 10 11 12 13 14 14 14 14 12 12 11 9 9
4 5 6 5 4 4 4 4 4 4 5 6 7 7 7 7 8 8 7 8 10 10 10 10 10 10 10 10 10 10 11 12 12 13 14 15 15 14 13 13 13 11 10
2 3 3 3 4 4 4 5 4 5 5 6 7 7 7 7 8 7 8 9 11 10 9 9 9 9 8 9 11 11 10 11 11 12 12 12 15 19 17 12 10 10 9
2 3 4 4 5 6 6 6 6 6 6 7 8 9 7 6 7 8 8 10 8 7 7 7 8 8 7 12 15 11 7 9 10 10 10 10 12 13 15 17 16 12 10
5 4 3 3 4 5 5 5 6 6 7 8 10 9 7 8 9 9 9 7 5 5 5 6 7 9 10 15 16 14 8 8 9 10 10 9 8 10 9 12 14 12 11
4 3 3 5 5 5 7 8 8 8 9 10 9 8 9 8 8 9 5 2 2 3 4 4 5 7 10 14 16 17 9 8 10 12 13 11 9 8 5 3 2 2 6
1 2 4 4 5 6 8 9 10 9 10 10 9 9 8 8 9 6 2 1 2 3 5 6 7 7 9 14 16 14 10 9 11 12 13 13 10 13 12 8 7 7 8
2 3 4 5 6 7 8 9 9 9 9 9 8 8 7 6 5 3 3 2 3 3 4 5 6 8 8 10 12 12 7 8 8 10 12 17 16 17 16 11 10 13 13
1 3 5 5 6 7 8 8 9 8 8 8 7 6 5 3 3 3 3 3 4 4 5 5 7 7 8 11 16 13 5 5 6 8 9 11 18 18 17 14 12 14 15
2 4 5 5 6 6 7 7 7 7 6 5 4 4 4 4 5 5 5 4 4 5 6 6 7 7 9 12 16 17 12 9 8 8 8 10 16 17 16 12 14 14 13
3 4 5 5 5 6 5 6 8 7 6 4 5 6 6 5 6 6 6 5 6 5 4 5 7 8 8 9 14 16 16 16 11 10 12 14 16 15 13 15 14 10 8
3 4 4 5 5 5 6 6 8 6 5 5 5 5 5 6 6 6 5 5 5 5 5 5 5 5 7 7 7 8 9 13 12 11 12 13 12 13 13 11 9 7 7
3 3 3 4 6 6 7 6 6 5 5 4 4 5 5 5 5 5 4 4 3 2 4 4 3 4 5 7 10 10 9 8 10 9 8 9 10 10 10 9 8 7 6
3 2 3 3 5 6 7 7 6 5 3 2 2 2 3 4 4 4 5 4 6 10 13 11 7 6 8 12 14 14 16 16 13 9 9 9 9 9 9 8 8 8 6
Wind_Direction
120 132 143 163 165 165 166 170 165 176 165 154 163 163 191 202 222 225 238 244 245 245 238 245 254 245 242 262 280 274 278 286 299 319 306 297 295 306 303 307 307 307 307
112 138 155 163 171 174 178 175 175 180 188 179 177 163 160 121 35 28 18 4 350 2 357 323 314 295 284 279 268 258 268 264 243 258 308 305 302 299 306 301 294 295 296
125 110 105 96 211 207 199 172 137 68 25 26 39 47 52 51 35 27 12 4 6 2 7 293 272 294 300 291 289 275 262 271 261 218 234 291 298 315 308 305 289 291 307
84 71 69 61 21 4 70 62 64 62 49 53 62 59 55 57 39 6 343 337 338 322 306 289 265 241 263 275 271 268 260 255 269 269 227 241 272 292 304 302 297 298 304
78 69 61 59 54 58 68 69 67 63 58 61 72 77 68 40 4 349 331 328 316 307 309 322 329 307 282 272 273 283 271 250 240 235 233 242 247 244 274 296 305 304 290
81 78 72 70 65 64 66 66 69 61 50 45 39 44 54 73 56 324 300 300 283 282 307 313 306 305 301 293 290 286 284 278 269 259 244 239 235 231 262 291 294 294 288
60 62 61 63 61 56 52 51 56 56 46 45 33 30 41 52 52 5 323 322 309 316 315 313 315 324 326 321 320 309 296 277 273 273 273 273 272 262 256 274 277 273 263
74 73 73 78 76 73 72 77 87 98 88 71 44 30 49 29 7 6 336 315 300 294 297 311 320 326 323 315 308 290 273 272 279 277 275 275 279 273 251 248 260 273 265
91 89 92 98 108 116 134 132 127 119 108 112 259 278 270 356 324 313 268 269 280 302 315 311 306 309 306 298 287 283 284 282 271 269 266 266 271 263 251 241 242 265 277
58 71 89 111 122 134 122 99 92 57 8 1 356 356 353 338 317 296 307 317 310 315 315 317 315 311 304 292 291 290 291 290 281 276 278 273 270 273 268 257 246 234 253
58 54 37 9 20 32 59 54 15 16 17 16 7 2 347 334 328 327 327 312 303 311 309 311 308 296 278 280 286 287 287 282 281 279 277 271 269 266 264 260 251 238 231
61 43 33 37 52 43 41 31 24 38 27 9 357 342 328 331 331 324 316 309 305 299 301 303 295 291 295 296 293 289 284 283 283 284 282 278 277 271 264 258 250 241 232
35 21 10 9 22 26 37 40 31 16 2 355 341 325 325 328 321 313 311 306 304 305 305 302 302 300 299 297 295 293 293 291 286 283 278 274 267 260 256 253 250 242 233
31 25 16 12 23 28 25 14 349 349 344 333 326 318 315 312 304 296 297 301 305 306 306 305 301 302 304 304 308 310 301 293 287 281 274 266 258 253 253 249 240 238 234
26 16 353 353 360 355 350 341 329 334 328 312 299 287 281 287 290 285 297 305 307 310 312 312 317 318 317 320 320 306 299 297 296 292 287 280 272 263 263 267 247 234 229
97 52 19 18 357 342 336 332 327 318 306 293 285 278 277 296 300 302 310 308 311 316 321 330 329 328 325 322 320 322 315 311 309 306 307 303 296 284 278 279 275 258 216
111 82 36 351 333 329 320 303 296 296 294 295 301 309 318 311 309 309 310 317 323 330 339 342 343 341 338 341 339 340 331 318 319 325 329 322 309 297 276 271 268 260 212
87 56 345 337 342 339 329 312 305 308 310 311 314 319 313 311 310 308 312 315 315 334 321 316 323 329 329 333 343 341 330 328 339 346 351 344 329 320 295 285 314 249 174
80 23 1 345 333 328 320 317 318 322 318 317 321 314 310 310 308 312 309 322 323 308 301 298 307 313 315 330 340 344 340 345 351 352 354 357 1 9 32 39 50 63 86
45 20 352 333 326 323 322 322 320 316 315 316 312 305 307 304 308 320 344 342 312 302 306 316 328 331 332 330 331 339 337 342 349 354 354 6 18 24 31 43 58 71 84
40 351 345 336 329 320 316 310 312 314 314 312 315 314 318 333 335 336 342 331 330 343 360 357 342 343 349 347 349 353 360 3 8 10 3 8 21 30 34 47 60 76 87
343 334 336 333 326 319 315 313 321 320 316 320 340 359 15 35 14 6 357 359 16 40 28 9 2 1 0 4 4 18 22 19 27 18 14 11 20 34 37 47 58 72 85
342 323 318 324 325 320 323 333 330 330 337 14 19 9 11 29 24 25 25 31 42 44 30 25 19 8 9 9 8 15 17 19 21 18 16 18 24 28 35 41 45 62 82
338 317 318 320 321 322 328 338 332 347 3 17 14 10 24 34 27 28 34 46 35 25 29 32 26 17 15 3 9 19 17 17 16 10 15 19 27 29 29 33 32 45 64
329 320 318 331 334 332 322 322 334 355 357 355 3 12 20 24 19 26 30 40 31 37 26 21 54 50 38 28 31 33 34 26 17 14 21 24 21 23 23 23 24 36 56
318 320 333 341 324 313 306 310 320 327 340 320 330 354 6 11 20 24 18 13 22 38 52 47 68 56 37 28 25 25 34 26 20 27 29 28 23 22 16 14 17 29 42